Probability
0 0 0 0 0 0 0 0 0 0 0 0 0 0 0 0 0 0 1 0 0 0 0 0 0 2 8 14 11 5 1 0 0 0 0 0 0 0 0 0 0 0 0 0 0 0 0 0 0
0 0 0 0 0 0 0 0 0 0 0 0 0 0 0 0 0 0 1 0 0 0 0 0 0 1 5 7 6 3 1 0 0 0 0 0 0 0 0 0 0 0 0 0 0 0 0 0 0
0 0 0 0 0 0 0 0 0 0 0 0 0 0 0 0 0 0 0 0 0 0 0 0 0 0 2 3 2 1 0 0 0 0 0 0 0 0 0 0 0 0 0 0 0 0 0 0 0
0 0 0 0 0 0 0 0 0 0 0 0 0 0 0 0 0 0 0 0 0 0 0 0 0 0 2 4 3 2 0 0 0 0 0 0 0 0 0 0 0 0 0 0 0 0 1 1 2
0 0 0 0 0 0 0 0 0 0 0 0 0 0 0 0 1 1 1 0 0 0 0 0 0 1 3 5 5 3 1 0 0 0 0 0 0 0 0 0 0 0 0 0 0 0 1 2 4
0 0 0 0 0 0 0 0 0 0 0 0 1 2 1 0 1 2 2 1 1 0 0 0 0 1 2 4 5 4 2 1 1 1 0 0 0 0 0 0 0 0 0 0 0 0 1 1 2
0 0 0 0 0 0 0 0 0 0 0 0 1 2 1 1 3 5 5 4 2 1 0 0 0 1 2 4 5 4 4 3 3 2 1 0 0 0 0 1 1 1 1 0 0 0 0 0 0
0 0 0 0 0 0 0 0 0 0 0 0 1 2 4 7 11 14 12 8 4 2 1 1 1 1 2 4 5 5 5 4 4 3 1 0 0 0 0 1 2 2 1 0 0 0 0 0 0
0 0 0 0 0 0 0 0 0 0 0 1 3 9 18 25 25 22 18 13 7 3 2 2 1 0 1 1 3 4 3 2 2 2 1 0 0 0 0 1 1 1 1 0 0 0 0 0 0
0 0 0 0 0 0 0 0 0 0 1 5 14 31 47 46 33 22 16 13 8 4 2 1 0 0 0 0 1 1 1 0 0 0 0 0 0 0 0 0 0 0 0 0 0 0 0 0 0
0 0 0 0 0 0 0 0 0 0 1 12 35 61 71 58 35 18 11 8 5 3 2 1 0 0 0 0 0 0 0 0 0 0 0 0 0 0 0 0 0 0 0 0 0 0 0 0 0
0 0 0 0 0 0 0 0 0 0 3 21 55 81 82 64 37 17 8 5 2 1 1 0 0 0 0 0 0 0 0 0 0 0 0 0 0 0 0 0 0 0 0 0 0 0 0 0 0
0 0 0 0 0 0 0 0 0 2 10 35 68 88 85 68 42 21 10 4 1 0 0 0 0 0 0 0 0 0 0 0 0 0 0 0 0 0 0 0 0 0 0 0 0 0 0 0 0
0 0 0 0 0 0 0 0 0 4 22 52 77 87 83 67 44 26 14 5 1 0 0 0 0 0 0 0 0 0 0 0 0 0 0 0 0 0 0 0 0 0 0 0 0 0 0 0 0
0 0 0 0 0 0 0 0 0 7 31 61 79 83 79 63 44 29 17 7 1 0 0 0 0 0 0 0 0 0 0 0 0 0 0 0 0 0 0 0 0 0 0 0 0 0 0 0 0
0 0 0 0 0 0 0 0 0 7 30 57 75 79 73 59 41 28 17 7 2 1 0 0 0 0 0 0 0 0 0 0 0 0 0 0 0 0 0 0 0 0 0 0 0 0 0 0 0
0 0 0 0 0 0 0 0 1 6 23 47 66 71 65 54 38 25 16 8 3 1 0 0 0 0 0 0 0 0 0 0 0 0 0 0 0 0 0 0 0 0 0 0 0 0 0 0 0
0 0 0 0 0 0 0 0 2 7 18 37 53 59 56 46 32 19 12 7 3 1 0 0 0 0 0 0 0 0 0 0 0 0 0 0 0 0 0 0 0 0 0 0 0 0 0 0 0
0 0 0 0 0 0 0 0 3 8 17 29 40 46 45 35 20 11 7 3 1 0 0 0 0 0 0 0 0 0 0 0 0 0 0 0 0 0 0 0 0 0 0 0 0 0 0 0 0
0 0 0 0 0 0 0 0 3 8 15 23 29 32 30 21 11 6 3 1 0 0 0 0 0 0 0 0 0 0 0 0 0 0 0 0 0 0 0 0 0 0 0 0 0 0 0 0 0
0 0 0 0 0 0 0 0 2 6 13 18 19 19 17 13 9 5 3 1 0 0 0 0 0 0 0 0 0 0 0 0 0 0 0 0 0 0 0 0 0 0 0 0 0 0 0 0 0
0 0 0 0 0 0 0 0 1 5 11 15 16 17 17 15 12 8 4 1 0 0 0 0 0 0 0 0 0 0 0 0 0 0 0 0 0 0 0 0 0 0 0 0 0 0 0 0 0
0 0 0 0 0 0 0 0 1 4 11 18 26 32 32 26 18 10 4 1 0 0 0 0 0 0 0 0 0 0 0 0 0 0 0 0 0 0 0 0 0 0 0 0 0 0 0 0 0
0 0 0 0 0 0 0 0 1 2 9 25 43 55 52 38 22 10 2 0 0 0 0 0 0 0 0 0 0 0 0 0 0 0 0 0 0 0 0 0 0 0 0 0 0 0 0 0 0
0 0 0 0 0 0 0 0 0 1 6 25 51 69 63 43 22 9 2 0 0 0 0 0 0 0 0 0 0 0 0 0 0 0 0 0 0 0 0 0 0 0 0 0 0 0 0 0 0
0 0 0 0 0 0 0 0 0 0 4 21 49 66 59 38 18 6 1 0 0 0 0 0 0 0 0 0 0 0 0 0 0 0 0 0 0 0 0 0 0 0 0 0 0 0 0 0 0
0 0 0 0 0 0 0 0 0 1 6 22 45 57 47 29 13 4 0 0 0 0 0 0 0 0 0 0 0 0 0 0 0 0 0 0 0 0 0 0 0 0 0 0 0 0 0 0 0
0 0 0 0 0 0 0 0 0 1 8 26 43 47 36 20 8 2 0 0 0 0 0 0 0 0 0 0 0 0 0 0 0 0 0 0 0 0 0 0 0 0 0 0 0 0 0 0 0
0 0 0 0 0 0 0 0 0 1 7 22 37 37 24 11 4 0 0 0 0 0 0 0 0 0 0 0 0 0 0 0 0 0 0 0 0 0 0 0 0 0 0 0 0 0 0 0 0
0 0 0 0 0 0 0 0 0 0 4 16 29 28 16 6 1 0 0 0 0 0 0 0 0 0 0 0 0 0 0 0 0 0 0 0 0 0 0 0 0 0 0 0 0 0 0 0 0
Wind_Speed
1 3 4 4 6 5 3 4 3 1 2 3 5 5 5 3 2 2 1 4 8 8 7 7 9 10 11 12 13 13 13 12 12 11 10 10 9 8 8 8 7 7 6 6 5 4 3 4 5
1 2 4 5 5 1 5 4 3 2 5 6 5 4 4 2 2 3 2 4 8 9 6 6 9 9 11 11 12 12 12 12 11 10 9 9 8 7 6 6 6 6 5 5 4 3 3 4 4
1 4 5 5 3 4 3 2 2 4 5 4 4 4 3 2 4 4 4 8 8 7 5 6 10 10 10 11 11 11 11 11 10 9 8 7 6 5 4 4 4 4 3 3 2 2 2 3 4
3 5 6 5 3 6 5 2 5 7 2 3 5 5 3 2 4 6 9 10 9 7 5 6 10 10 10 11 10 10 10 9 9 8 7 6 5 4 3 3 2 2 1 1 1 1 2 2 4
5 5 4 2 5 6 5 4 6 6 5 3 5 5 2 3 7 11 10 9 9 7 5 6 9 10 11 11 11 10 9 8 7 7 6 5 5 3 2 1 1 0 1 1 1 2 2 3 4
5 5 4 2 6 6 5 6 8 6 4 5 6 5 2 3 8 9 9 8 7 7 5 5 9 11 11 11 10 9 8 7 6 6 6 5 4 3 2 1 0 0 1 1 1 2 3 4 5
5 5 3 3 4 6 4 5 10 8 6 7 7 7 3 4 6 8 8 8 7 6 5 4 4 7 10 10 10 9 8 7 6 6 5 4 3 2 1 1 0 0 0 1 1 2 3 4 5
5 5 1 2 3 5 3 2 5 9 6 6 7 9 8 8 9 9 9 7 7 5 4 4 3 4 4 5 10 10 9 8 7 6 5 4 3 2 2 0 1 1 1 1 2 2 3 4 5
4 5 2 4 3 4 2 1 2 5 7 4 3 4 6 16 13 11 8 6 6 6 4 4 4 3 3 4 6 7 8 7 6 4 4 3 1 1 1 1 2 2 2 2 3 4 4 5 6
4 3 6 6 4 3 4 3 6 6 6 3 3 6 15 16 14 12 10 10 8 8 7 6 6 5 4 4 3 3 3 3 2 1 1 1 1 1 1 3 3 3 4 4 5 6 6 5 3
5 6 5 5 5 4 3 3 5 10 6 9 12 17 20 17 14 12 10 9 9 9 8 7 6 5 5 3 3 2 2 2 2 2 1 1 1 1 1 1 3 4 4 3 5 5 3 3 3
4 5 4 5 3 3 3 3 5 8 9 9 15 23 23 20 17 14 13 11 8 8 7 5 5 4 3 3 2 2 2 2 1 1 1 1 1 1 0 0 1 1 1 2 2 2 3 4 4
3 4 4 6 8 5 3 4 4 4 2 11 17 20 21 19 15 11 10 8 7 7 5 3 3 3 3 2 2 2 2 2 1 1 0 2 2 1 0 0 1 1 1 1 2 2 3 3 4
2 4 6 6 4 2 2 1 3 2 7 14 19 19 18 18 16 12 10 9 8 6 4 2 2 2 3 2 2 2 1 2 2 2 2 1 1 1 1 1 1 1 1 1 1 1 1 2 2
2 4 6 3 5 4 2 3 1 1 9 14 16 16 16 14 14 14 13 10 7 4 3 2 3 3 4 3 3 3 3 4 4 3 4 4 3 3 3 3 2 2 2 2 2 3 2 2 3
2 3 3 6 5 5 5 2 2 2 11 13 14 15 14 13 12 10 9 6 5 4 4 3 4 6 6 6 6 5 5 6 5 4 4 6 5 5 4 4 3 3 3 3 3 3 3 3 3
5 1 2 6 4 4 4 3 3 2 9 12 13 14 13 11 8 6 6 6 5 5 5 5 6 7 8 8 7 8 7 7 5 5 5 6 7 6 5 4 4 4 4 4 3 3 3 3 3
3 2 2 5 5 5 4 3 3 1 4 8 10 11 12 11 8 7 7 7 7 6 6 7 7 7 7 7 7 7 8 6 6 6 6 7 6 7 5 5 5 4 4 4 3 3 3 2 3
3 2 5 6 4 2 2 3 3 2 3 4 5 7 10 9 8 8 8 7 7 7 7 6 7 5 4 4 4 5 5 4 5 6 7 7 7 7 6 4 4 4 4 3 3 2 2 2 3
3 3 5 7 2 1 0 1 1 2 3 4 6 6 7 7 8 8 7 7 7 7 8 7 7 6 5 4 4 4 5 5 4 5 7 7 7 6 6 5 4 3 3 4 3 3 2 2 2
4 5 6 7 4 1 2 2 1 1 3 4 5 6 7 9 9 8 8 8 8 8 8 8 8 8 8 7 6 6 4 4 4 5 4 6 6 6 5 5 4 4 3 2 2 2 1 2 2
6 8 8 6 2 4 3 4 4 2 4 6 7 8 9 10 9 8 9 9 9 8 8 10 10 9 8 7 7 7 5 4 3 2 3 4 5 5 5 4 4 3 2 2 3 2 1 1 2
10 6 5 5 4 3 2 4 6 3 7 11 11 11 10 10 11 10 10 10 10 9 9 9 10 10 8 8 8 8 7 4 2 2 4 4 4 5 5 4 4 3 2 3 3 3 2 1 2
6 3 5 4 4 2 7 7 7 9 13 13 14 14 12 12 12 12 11 11 10 8 8 8 10 9 7 8 8 8 7 5 4 3 3 3 2 3 5 4 3 3 2 2 2 2 3 2 2
4 5 4 4 3 8 5 5 11 12 11 14 17 15 13 13 13 13 12 11 9 8 8 7 9 8 6 7 6 6 6 5 4 2 2 2 2 2 3 3 3 2 2 2 2 2 2 2 3
7 10 8 6 6 7 3 7 9 6 6 8 12 14 15 14 13 12 11 10 9 8 7 6 7 6 5 6 5 5 4 3 2 1 1 1 1 2 3 3 2 2 2 2 2 1 1 2 4
7 7 8 7 3 4 7 7 7 2 3 11 15 15 15 14 14 12 10 9 8 8 6 6 6 5 4 4 4 3 3 2 2 1 1 1 2 2 3 3 2 2 1 0 0 1 2 3 4
7 9 6 7 6 6 6 5 7 6 9 13 17 18 16 15 14 12 10 8 7 6 6 5 5 4 3 2 1 2 1 1 1 1 2 2 3 3 4 3 3 3 3 3 2 3 4 4 5
4 5 5 5 5 6 6 9 8 11 14 18 18 16 16 16 15 13 10 8 8 6 5 4 3 2 1 1 0 1 1 1 1 1 2 3 3 4 4 4 4 4 5 5 4 5 5 6 8
4 7 8 6 6 6 5 10 5 8 11 13 14 15 16 17 15 14 12 9 8 7 5 4 3 2 2 1 1 1 1 1 2 2 3 3 4 4 5 5 5 6 6 6 6 7 6 7 9
Wind_Direction
21 106 108 73 54 46 275 256 229 198 133 129 126 129 136 141 173 204 37 113 120 122 122 139 150 152 141 135 132 131 130 128 125 122 119 118 117 118 123 129 131 134 136 134 128 113 91 73 64
78 105 65 64 85 26 276 248 234 185 144 120 103 103 96 86 71 105 112 117 120 119 117 135 148 148 141 135 133 134 134 133 132 131 130 128 126 123 126 131 136 139 140 140 134 114 78 51 38
70 65 85 77 121 192 239 232 163 125 128 111 104 80 104 143 138 144 137 127 114 111 116 144 147 144 139 136 134 135 137 137 136 137 137 135 130 122 123 134 139 141 142 142 138 114 70 36 17
82 51 56 74 231 227 222 196 135 133 120 84 111 98 76 68 147 138 133 131 122 121 126 147 145 142 139 139 138 140 142 142 141 140 139 136 131 126 131 145 152 158 174 185 166 104 58 26 9
64 78 64 8 264 255 231 209 156 148 148 127 124 118 78 28 108 125 133 132 128 124 127 142 143 140 140 143 144 145 145 144 141 139 136 131 126 125 130 158 179 247 296 309 341 43 43 30 22
62 72 91 253 267 273 256 191 158 146 138 137 130 120 100 117 127 135 130 122 121 125 126 137 146 143 142 145 146 146 146 145 142 139 136 134 132 130 127 139 235 306 339 346 9 34 39 34 22
110 109 160 227 274 289 270 161 153 148 151 171 148 122 130 161 146 128 113 110 113 121 121 120 135 143 146 147 147 148 149 149 148 147 146 147 151 164 199 230 252 57 69 35 29 30 25 23 17
128 109 142 249 258 283 295 148 150 142 167 151 147 150 171 178 140 117 105 105 118 115 115 123 125 129 137 147 155 156 157 157 159 164 170 177 190 215 244 256 332 343 349 348 2 7 5 9 10
98 85 207 230 227 278 299 112 124 133 127 147 177 173 158 142 134 123 117 121 137 140 142 144 142 145 144 150 164 161 165 167 167 177 192 176 82 20 354 320 303 312 324 332 338 343 346 360 7
107 149 225 221 216 256 281 201 161 128 138 150 98 104 126 141 146 149 154 158 161 167 176 173 171 167 164 166 144 139 139 142 141 143 145 107 89 359 343 334 319 323 335 342 344 345 353 7 8
167 197 237 252 239 245 247 202 161 140 184 196 168 148 147 153 159 164 168 167 173 181 184 181 181 171 166 158 142 133 123 126 138 154 155 119 89 6 4 7 355 2 7 7 355 358 2 0 360
186 239 237 268 277 292 230 178 159 177 208 183 159 152 155 163 171 175 175 176 180 189 189 182 179 163 165 149 145 148 143 143 149 166 173 166 186 227 272 356 356 10 8 351 349 349 355 2 4
216 264 269 265 292 267 229 194 181 219 174 129 140 153 163 169 175 175 174 175 184 194 187 186 155 151 157 146 146 146 156 142 134 122 187 198 207 225 228 2 15 9 17 7 355 359 6 11 10
250 259 288 293 305 294 176 169 116 251 132 137 150 164 170 174 172 168 171 182 191 188 177 145 117 132 128 125 122 108 101 95 83 62 33 68 147 146 116 74 45 33 42 57 62 50 48 38 22
295 305 326 329 339 340 49 43 43 191 139 147 161 170 173 174 173 178 179 181 179 162 129 92 110 94 96 95 90 82 77 80 73 62 52 62 79 95 98 86 66 54 69 78 74 66 64 50 26
19 32 327 305 350 357 57 320 309 160 151 160 170 175 176 177 177 177 169 157 135 112 90 65 81 84 86 88 85 80 77 78 73 64 59 61 70 82 84 78 64 54 61 65 72 53 55 40 15
25 40 276 306 0 23 55 277 284 209 168 171 177 178 177 172 166 158 142 124 105 96 89 78 80 88 92 91 88 84 79 74 68 62 59 57 62 68 75 70 56 49 51 42 45 47 46 29 357
237 244 275 284 311 6 2 304 327 348 179 179 179 177 175 171 158 128 113 103 93 87 87 88 87 92 99 96 90 83 72 65 60 56 52 52 55 58 65 65 55 54 56 44 39 46 41 23 338
188 219 266 268 284 2 342 342 353 55 106 160 184 181 172 152 120 107 98 97 90 80 82 81 88 87 94 93 91 85 74 62 57 56 52 53 56 58 60 63 56 54 59 49 37 28 15 2 348
181 243 275 291 299 158 122 21 41 83 137 166 176 181 167 143 131 117 101 89 88 88 83 78 74 68 60 70 80 87 92 76 66 53 48 46 50 48 60 59 54 48 51 41 29 29 9 343 12
210 212 239 260 321 352 139 326 333 60 114 134 149 159 161 162 152 133 112 99 95 88 86 85 75 70 64 71 83 84 72 62 44 36 34 30 42 49 54 53 50 41 42 32 11 18 16 315 310
245 227 218 243 261 268 173 254 261 188 171 179 171 166 166 162 148 133 121 109 101 96 91 86 82 77 72 75 85 87 88 83 59 41 35 27 32 39 45 45 41 35 25 9 343 15 342 306 302
218 230 213 230 217 255 244 199 267 185 210 208 190 178 168 156 146 137 127 117 108 102 96 92 88 81 77 80 88 92 90 92 84 57 46 32 20 24 28 34 27 18 5 353 345 347 349 337 305
207 73 50 52 86 246 232 186 238 209 210 199 189 181 166 151 142 132 125 120 111 103 96 94 91 82 78 82 84 96 103 104 92 64 45 22 2 2 10 15 14 3 355 349 352 2 16 15 343
140 106 13 342 360 246 237 186 236 228 217 196 184 174 162 150 143 139 136 129 119 109 99 93 95 90 86 89 88 94 101 102 99 91 62 33 3 342 339 354 349 347 349 17 43 50 41 22 349
184 154 170 211 234 268 273 223 248 263 236 186 168 165 159 152 145 141 138 132 124 115 106 105 104 103 95 92 89 90 97 101 99 86 66 13 308 287 306 331 342 353 14 54 66 50 348 344 325
165 190 185 170 225 257 271 277 296 316 182 168 164 166 165 154 145 140 136 129 126 122 119 121 118 109 99 98 98 92 91 90 77 42 7 330 314 305 331 332 333 329 330 358 347 299 302 310 305
167 156 118 142 178 243 265 254 246 222 192 176 175 175 166 151 144 140 138 133 127 123 119 113 113 117 117 120 121 106 75 54 36 12 345 326 315 312 315 308 296 283 271 262 264 275 283 296 298
139 140 147 149 173 187 245 259 228 211 192 186 184 173 160 152 149 146 142 135 127 120 118 117 119 116 130 145 97 68 343 336 342 329 308 301 294 295 292 281 273 267 264 259 257 266 279 289 298
187 181 154 167 222 199 203 256 262 226 196 182 172 162 155 152 150 148 144 139 137 135 135 140 153 170 197 220 236 281 298 309 313 304 296 291 286 286 281 274 272 270 267 261 257 268 279 287 297